Houston Hull, TX

4:10 PM CDT on July 20, 2017 (GMT -0500)
Sugar Land Municipal-Hull

Weather History for KSGR - September, 2013

Change the Weather History Date:

Monday, September 9, 2013

  Actual Average Record
Temperature  
Mean Temperature 82 °F -  
Max Temperature 93 °F 90 °F 100 °F (1997)
Min Temperature 73 °F 71 °F 60 °F (1950)
Cooling Degree Days 17    
Growing Degree Days 32 (Base 50)    
Moisture  
Dew Point 72 °F    
Average Humidity 73    
Maximum Humidity 93    
Minimum Humidity 48    
Precipitation  
Precipitation 0.01 in - - ()
Sea Level Pressure  
Sea Level Pressure 29.96 in    
Wind  
Wind Speed 5 mph (ESE)    
Max Wind Speed 18 mph    
Max Gust Speed 23 mph    
Visibility 10 miles    
Events Rain , Thunderstorm    
Averages and records for this station are not official NWS values.
T = Trace of Precipitation, MM = Missing Value Source: NWS Daily Summary

Daily Weather History Graph

Daily Weather History Graph

Search for Another Location

Airport or City:

Trip Planner

Search our weather history database for the weather conditions in past years. The results will help you decide how hot, cold, wet, or windy it might be!

Date:

Astronomy

Sep. 09, 2013 Rise Set
Actual Time 7:04 AM CDT 7:34 PM CDT
Civil Twilight 6:40 AM CDT 7:58 PM CDT
Nautical Twilight 6:12 AM CDT 8:26 PM CDT
Astronomical Twilight 5:43 AM CDT 8:55 PM CDT
Moon 11:03 AM CDT (9/9) 10:16 PM CDT (9/9)
Length of Visible Light 13h 18m
Length of Day
12h 30m
Waxing Crescent, 19% of the Moon is Illuminated
Sep 9
Waxing Crescent
Sep 12
First Quarter
Sep 19
Full
Sep 26
Last Quarter
Oct 4
New

Hourly Weather History & Observations

Time (CDT) Temp. Heat Index Dew Point Humidity Pressure Visibility Wind Dir Wind Speed Gust Speed Precip Events Conditions
12:53 AM 73.9 °F - 71.1 °F 91% 29.94 in 10.0 mi Calm Calm - N/A   Clear
1:53 AM 73.0 °F - 71.1 °F 93% 29.94 in 10.0 mi NNE 3.5 mph - N/A   Clear
2:53 AM 73.0 °F - 71.1 °F 93% 29.94 in 10.0 mi Calm Calm - N/A   Clear
3:53 AM 73.9 °F - 72.0 °F 93% 29.93 in 10.0 mi Calm Calm - N/A   Clear
4:53 AM 77.0 °F - 73.0 °F 88% 29.94 in 10.0 mi ESE 4.6 mph - N/A   Clear
5:53 AM 77.0 °F - 73.0 °F 88% 29.94 in 10.0 mi East 4.6 mph - N/A   Clear
6:53 AM 77.0 °F - 73.0 °F 88% 29.95 in 10.0 mi East 3.5 mph - N/A   Clear
7:53 AM 78.1 °F - 73.9 °F 87% 29.97 in 10.0 mi Calm Calm - N/A   Clear
8:53 AM 82.0 °F 87.4 °F 73.0 °F 74% 29.98 in 10.0 mi ESE 5.8 mph - N/A   Clear
9:53 AM 84.0 °F 91.2 °F 73.9 °F 72% 29.99 in 10.0 mi ESE 8.1 mph - N/A   Partly Cloudy
10:53 AM 87.1 °F 93.6 °F 72.0 °F 61% 29.99 in 10.0 mi ESE 11.5 mph - N/A   Scattered Clouds
11:53 AM 89.1 °F 95.0 °F 71.1 °F 55% 29.99 in 10.0 mi East 10.4 mph - N/A Thunderstorm Partly Cloudy
12:12 PM 89.6 °F 96.2 °F 71.6 °F 55% 29.98 in 10.0 mi ESE 8.1 mph - N/A   Scattered Clouds
12:53 PM 91.9 °F 97.4 °F 70.0 °F 48% 29.97 in 10.0 mi ESE 9.2 mph 18.4 mph N/A   Scattered Clouds
1:53 PM 91.9 °F 98.4 °F 71.1 °F 50% 29.96 in 10.0 mi SE 11.5 mph - N/A   Mostly Cloudy
2:50 PM 84.2 °F 90.9 °F 73.4 °F 70% 29.96 in 10.0 mi SE 11.5 mph - 0.00 in Rain , Thunderstorm Light Rain
2:53 PM 84.9 °F 91.4 °F 73.0 °F 67% 29.96 in 10.0 mi SE 11.5 mph - 0.00 in Rain , Thunderstorm Light Rain
3:18 PM 86.0 °F 93.4 °F 73.4 °F 66% 29.96 in 8.0 mi South 15.0 mph 23.0 mph 0.00 in   Scattered Clouds
3:53 PM 86.0 °F 92.2 °F 72.0 °F 63% 29.96 in 10.0 mi SE 18.4 mph 23.0 mph 0.01 in   Clear
4:53 PM 88.0 °F 94.7 °F 72.0 °F 59% 29.96 in 10.0 mi SE 11.5 mph - N/A   Clear
5:53 PM 86.0 °F 92.2 °F 72.0 °F 63% 29.96 in 10.0 mi SSE 12.7 mph - N/A   Partly Cloudy
6:53 PM 84.9 °F 90.7 °F 72.0 °F 65% 29.96 in 10.0 mi SE 16.1 mph - N/A   Clear
7:53 PM 82.0 °F 87.4 °F 73.0 °F 74% 29.96 in 10.0 mi ESE 10.4 mph - N/A   Clear
8:53 PM 81.0 °F 84.4 °F 70.0 °F 69% 29.96 in 10.0 mi ESE 5.8 mph - N/A   Clear
9:53 PM 80.1 °F 83.6 °F 71.1 °F 74% 29.96 in 10.0 mi East 3.5 mph - N/A   Clear
10:53 PM 80.1 °F 83.8 °F 72.0 °F 76% 29.97 in 10.0 mi Calm Calm - N/A   Clear
11:53 PM 79.0 °F - 73.0 °F 82% 29.98 in 10.0 mi Calm Calm - N/A   Clear